SCP
0 0 0 0 0 0 0 0 0 0 0 0 0 0 0 0 0 0 0 0 0 0 0 0 0 0 0 0 -0 -0 -0 -0 -0 -0 -0 0 0 -0
0 0 0 0 0 0 0 0 0 0 0 0 0 0 0 0 0 0 0 0 0 0 0 0 0 0 0 -0 -0 -0 -0 0 -0 -0 -0 0 0 -0
0 0 0 0 0 0 0 0 0 0 0 0 0 0 0 0 0 0 0 0 0 0 0 0 0 0 0 0 0 -0 -0 -0 0 -0 -0 0 0 0
0 0 0 0 0 0 0 0 0 0 0 0 0 0 0 0 0 0 0 0 0 0 0 0 0 0 0 0 0 0 -0 -0 0 0 0 -0 0 0
0 0 0 0 0 0 0 0 0 0 0 0 0 0 0 0 0 0 0 0 0 0 0 0 0 0 0 0 0 0 -0 -0 0 0 0 -0 0 0
0 0 0 0 0 0 0 0 0 0 0 0 0 0 0 0 0 0 0 0 0 0 0 0 0 0 0 0 0 0 0 -0 0 0 0 -0 -0 0
0 0 0 0 0 0 0 0 0 0 0 0 0 0 0 0 0 0 0 0 0 0 0 0 0 0 0 0 0 0 0 -0 0 0 0 0 -0 -0
0 0 0 0 0 0 0 0 0 0 0 0 0 0 0 0 0 0 0 0 0 0 0 0 0 0 0 0 0 0 0 0 -0 -0 0 -0 -0 -0
0 0 0 0 0 0 0 0 0 0 0 0 0 0 0 0 0 0 0 0 0 0 0 0 0 0 0 0 0 0 0 0 0 -0 0 0 0 -0
0 0 0 0 0 0 0 0 0 0 0 0 0 0 0 0 0 0 0 0 0 0 0 0 0 0 0 0 0 0 0 0 0 -0 0 0 -0 -0
0 0 0 0 0 0 0 0 0 0 0 0 0 0 0 0 0 0 0 0 0 0 0 0 0 0 0 0 0 0 0 0 0 0 0 0 0 -0
0 0 0 0 0 0 0 0 0 0 0 0 0 0 0 0 0 0 0 0 0 0 0 0 0 0 0 0 0 0 0 0 0 0 0 0 -0 0
0 0 0 0 0 0 0 0 0 0 0 0 0 0 0 0 0 0 0 0 0 0 0 0 0 0 0 0 0 0 0 0 0 0 0 0 0 0
0 0 0 0 0 0 0 0 0 0 0 0 0 0 0 0 0 0 0 0 0 0 0 0 0 0 0 0 0 0 0 0 0 0 0 0 0 0
0 0 0 0 0 0 0 0 0 0 0 0 0 0 0 0 0 0 0 0 0 0 0 0 0 0 0 0 0 0 0 0 0 0 0 0 0 0
0 0 0 0 0 0 0 0 0 0 0 0 0 0 0 0 0 0 0 0 0 0 0 0 0 0 0 0 0 0 0 0 0 0 0 0 0 0
0 0 0 0 0 0 0 0 0 0 0 0 0 0 0 0 0 0 0 0 0 0 0 0 0 0 0 0 0 0 0 0 0 0 0 0 -0 0
0 0 0 0 0 0 0 0 0 0 0 0 0 0 0 0 0 0 0 0 0 0 0 0 0 0 0 0 0 0 0 0 0 0 0 0 0 0
0 0 0 0 0 0 0 0 0 0 0 0 0 0 0 0 0 0 0 0 0 0 0 0 0 0 0 0 0 0 0 0 0 0 0 0 0 0
0 0 0 0 0 0 0 0 0 0 0 0 0 0 0 0 0 0 0 0 0 0 0 0 0 0 0 0 0 0 0 0 0 0 0 0 0 0
0 0 0 0 0 0 0 0 0 0 0 0 0 0 0 0 0 0 0 0 0 0 0 0 0 0 0 0 0 0 0 0 0 0 0 0 0 0
0 0 0 0 0 0 0 0 0 0 0 0 0 0 0 0 0 0 0 0 0 0 0 0 0 0 0 0 0 0 0 0 0 0 0 0 0 0
0 0 0 0 0 0 0 -0 -0 0 0 0 0 0 0 0 0 0 0 0 0 0 0 0 0 0 0 0 0 0 0 0 0 0 0 0 0 0
Wind_Speed_500mb
47 49 47 47 45 45 39 37 44 56 61 56 47 22 25 37 35 33 36 41 44 38 39 30 29 29 29 29 24 16 20 22 19 16 12 8 9 11
55 59 49 48 49 47 49 51 49 46 54 47 43 41 34 38 33 28 34 41 45 46 38 32 35 38 36 27 25 20 23 21 19 16 12 7 8 10
58 65 54 46 52 54 55 56 57 58 64 60 46 33 26 32 38 28 28 32 44 48 39 39 40 43 40 29 29 20 26 20 18 16 12 9 7 10
66 68 61 56 54 54 52 48 52 52 54 59 57 47 38 33 36 38 37 28 40 56 48 46 47 46 39 33 31 27 24 15 16 16 12 10 6 9
74 69 62 59 60 58 55 51 46 47 53 61 61 53 47 37 36 37 39 31 33 70 60 52 53 48 47 36 33 30 21 14 17 17 13 12 7 8
79 64 61 62 63 65 64 62 55 50 47 50 52 58 52 38 41 40 44 45 40 64 67 64 59 55 49 39 33 31 22 18 18 17 13 12 8 7
74 64 64 64 66 68 67 66 64 63 57 55 51 43 57 45 42 41 54 52 59 70 75 67 62 55 55 43 38 33 23 21 20 18 15 11 9 6
76 78 78 77 78 76 74 75 74 74 66 59 64 58 45 58 39 47 57 58 62 62 73 66 62 59 59 48 33 33 24 23 21 19 17 11 9 4
74 78 79 79 77 77 74 74 76 81 81 80 83 77 66 52 46 57 60 71 62 69 73 72 62 62 57 47 38 35 28 26 23 22 19 12 9 4
77 76 78 78 77 77 80 75 81 83 79 80 83 84 72 68 54 57 58 62 72 67 72 74 66 70 60 46 35 36 34 28 27 25 21 15 9 9
68 70 70 72 73 68 65 74 84 91 81 77 81 74 69 74 63 67 58 83 81 73 74 79 72 69 63 52 41 37 38 30 32 29 22 17 14 14
79 83 81 81 78 73 72 76 82 85 77 83 77 74 71 73 76 73 70 79 82 72 79 80 70 71 51 53 46 47 39 37 37 34 26 22 19 17
94 96 91 86 85 90 93 97 103 94 92 87 80 80 81 80 81 79 87 68 84 91 79 82 76 74 56 56 63 55 45 43 43 38 31 28 25 21
77 78 80 81 87 89 87 92 91 90 92 91 91 82 89 83 84 89 86 90 83 81 77 75 84 80 81 60 56 68 59 51 46 40 37 36 33 25
82 87 89 92 94 95 93 92 90 86 89 104 111 103 94 87 81 78 76 91 89 75 86 79 73 79 83 81 77 59 70 66 55 46 45 43 36 33
85 87 91 98 99 97 94 92 89 87 89 99 103 95 89 82 80 81 80 91 91 88 87 66 71 80 82 86 68 52 63 58 65 55 48 43 39 36
74 80 87 86 86 83 80 78 74 78 79 89 89 86 95 84 82 86 93 98 91 85 75 65 83 78 81 81 64 51 52 65 50 58 57 49 42 41
63 73 76 72 75 76 76 74 74 69 74 87 97 90 92 84 86 94 93 103 96 87 84 82 90 74 65 53 42 42 49 65 50 60 55 59 58 48
75 77 76 76 77 73 67 68 83 75 71 91 95 94 96 81 93 91 92 100 97 98 87 87 92 87 80 68 57 43 51 69 59 61 66 64 57 50
78 78 80 78 72 60 55 54 58 66 77 93 104 97 109 79 100 96 97 101 101 97 89 90 91 91 91 83 72 55 55 65 65 76 76 61 50 46
89 87 80 64 58 54 46 48 53 67 81 91 92 100 115 81 100 95 98 98 99 96 91 92 89 84 72 64 57 60 58 51 52 67 71 64 63 55
88 86 69 53 41 18 17 24 45 65 75 83 92 106 80 101 95 100 104 105 102 97 89 83 83 82 78 75 69 74 73 64 59 59 57 52 57 51
87 80 60 35 1 6 22 27 44 63 76 76 92 111 66 89 92 99 100 97 96 92 87 83 88 88 84 80 72 82 83 81 81 76 69 59 47 34
Wind_Direction_500mb
306 304 293 288 288 284 278 281 294 300 301 300 296 294 327 311 292 280 273 265 261 244 228 229 227 220 222 222 237 244 265 255 274 281 295 306 334 335
304 305 292 286 285 280 276 273 271 280 296 290 300 294 286 304 297 282 281 273 246 243 219 226 234 226 223 234 240 239 259 250 263 274 282 298 340 333
299 299 296 287 281 278 276 275 272 267 275 277 274 285 293 291 291 282 271 256 242 229 212 225 232 226 228 226 239 243 255 250 254 263 270 289 338 339
294 292 286 290 286 286 280 276 271 268 269 277 274 267 272 290 281 271 267 255 246 224 217 223 227 224 221 226 237 244 250 243 246 252 259 282 331 336
293 291 276 277 280 282 281 280 275 273 269 268 272 264 265 280 284 258 245 241 253 218 214 215 223 222 228 217 233 244 247 239 239 241 249 274 308 331
292 285 276 274 273 274 275 280 275 275 274 276 275 265 256 265 269 259 231 231 237 223 214 220 217 219 225 216 229 242 240 238 230 236 240 267 296 327
285 281 276 272 272 273 272 270 266 270 273 273 275 274 254 253 249 252 235 234 225 232 213 215 222 222 224 220 222 235 234 235 227 232 238 259 288 313
281 273 269 268 268 267 264 265 261 261 259 265 265 262 262 250 261 242 233 215 212 221 219 217 220 223 232 228 226 235 234 231 227 233 239 246 267 286
286 285 281 276 273 269 267 266 263 259 257 258 259 258 255 255 243 240 231 236 232 222 216 223 230 230 228 225 220 230 230 229 226 230 235 233 242 203
286 284 280 277 274 269 269 269 262 261 257 257 251 251 249 249 246 247 239 239 227 225 218 215 231 227 228 221 221 226 227 221 229 227 228 227 218 178
290 288 285 281 277 274 272 264 261 262 261 256 257 253 248 244 246 233 228 220 221 221 223 216 220 217 222 219 215 214 219 211 225 226 219 216 197 180
291 288 285 282 281 278 273 268 267 266 259 254 255 251 246 236 235 234 228 218 216 213 213 213 217 214 202 215 216 218 212 207 218 221 205 205 188 184
285 282 280 278 277 276 273 269 266 269 263 258 253 250 244 243 229 229 225 222 222 223 224 218 217 210 208 202 209 213 215 216 215 216 196 198 193 180
288 287 285 284 284 279 273 268 264 258 254 248 245 238 240 240 231 225 225 225 232 237 232 231 220 214 214 212 205 210 211 209 212 212 198 192 192 181
301 298 295 291 288 282 276 272 269 257 240 239 236 240 232 229 230 226 226 223 225 235 232 232 223 223 219 223 214 210 201 202 204 203 197 195 195 179
301 301 295 292 290 288 283 277 269 257 239 229 229 224 222 221 219 224 213 212 215 226 223 222 220 219 218 220 212 215 208 198 197 196 193 191 191 185
304 295 296 297 292 288 284 278 269 255 237 225 219 212 212 213 210 212 198 202 206 209 202 204 208 215 218 221 208 217 212 202 202 191 186 189 187 190
313 308 307 304 299 295 288 280 272 252 233 214 208 205 209 203 201 186 192 198 198 203 206 199 201 199 202 199 217 222 207 200 194 189 185 186 189 192
329 323 309 306 300 292 281 265 261 251 226 207 199 201 199 195 191 185 187 198 198 204 204 197 201 201 190 185 196 199 215 192 185 182 186 193 194 193
338 323 317 313 305 292 288 264 246 230 214 200 196 195 189 192 181 183 182 185 191 195 196 200 204 204 198 193 191 185 195 190 185 179 185 190 198 202
342 336 331 322 317 303 279 253 233 211 198 190 188 189 185 193 181 181 187 188 192 196 196 199 207 209 194 199 189 173 189 199 206 203 195 193 195 201
350 344 338 340 335 322 255 202 192 188 181 179 179 179 182 182 186 187 186 189 195 201 204 204 202 194 194 203 195 182 177 186 203 209 213 214 207 207
358 353 350 1 36 89 129 167 172 171 169 172 176 175 180 175 178 179 185 186 192 196 194 197 195 195 195 199 193 183 182 184 189 192 198 208 219 227
Wind_Speed_850mb
47 49 47 47 45 45 39 37 44 56 61 56 47 22 25 37 35 33 36 41 44 38 39 30 29 29 29 29 24 16 20 22 19 16 12 8 9 11
55 59 49 48 49 47 49 51 49 46 54 47 43 41 34 38 33 28 34 41 45 46 38 32 35 38 36 27 25 20 23 21 19 16 12 7 8 10
58 65 54 46 52 54 55 56 57 58 64 60 46 33 26 32 38 28 28 32 44 48 39 39 40 43 40 29 29 20 26 20 18 16 12 9 7 10
66 68 61 56 54 54 52 48 52 52 54 59 57 47 38 33 36 38 37 28 40 56 48 46 47 46 39 33 31 27 24 15 16 16 12 10 6 9
74 69 62 59 60 58 55 51 46 47 53 61 61 53 47 37 36 37 39 31 33 70 60 52 53 48 47 36 33 30 21 14 17 17 13 12 7 8
79 64 61 62 63 65 64 62 55 50 47 50 52 58 52 38 41 40 44 45 40 64 67 64 59 55 49 39 33 31 22 18 18 17 13 12 8 7
74 64 64 64 66 68 67 66 64 63 57 55 51 43 57 45 42 41 54 52 59 70 75 67 62 55 55 43 38 33 23 21 20 18 15 11 9 6
76 78 78 77 78 76 74 75 74 74 66 59 64 58 45 58 39 47 57 58 62 62 73 66 62 59 59 48 33 33 24 23 21 19 17 11 9 4
74 78 79 79 77 77 74 74 76 81 81 80 83 77 66 52 46 57 60 71 62 69 73 72 62 62 57 47 38 35 28 26 23 22 19 12 9 4
77 76 78 78 77 77 80 75 81 83 79 80 83 84 72 68 54 57 58 62 72 67 72 74 66 70 60 46 35 36 34 28 27 25 21 15 9 9
68 70 70 72 73 68 65 74 84 91 81 77 81 74 69 74 63 67 58 83 81 73 74 79 72 69 63 52 41 37 38 30 32 29 22 17 14 14
79 83 81 81 78 73 72 76 82 85 77 83 77 74 71 73 76 73 70 79 82 72 79 80 70 71 51 53 46 47 39 37 37 34 26 22 19 17
94 96 91 86 85 90 93 97 103 94 92 87 80 80 81 80 81 79 87 68 84 91 79 82 76 74 56 56 63 55 45 43 43 38 31 28 25 21
77 78 80 81 87 89 87 92 91 90 92 91 91 82 89 83 84 89 86 90 83 81 77 75 84 80 81 60 56 68 59 51 46 40 37 36 33 25
82 87 89 92 94 95 93 92 90 86 89 104 111 103 94 87 81 78 76 91 89 75 86 79 73 79 83 81 77 59 70 66 55 46 45 43 36 33
85 87 91 98 99 97 94 92 89 87 89 99 103 95 89 82 80 81 80 91 91 88 87 66 71 80 82 86 68 52 63 58 65 55 48 43 39 36
74 80 87 86 86 83 80 78 74 78 79 89 89 86 95 84 82 86 93 98 91 85 75 65 83 78 81 81 64 51 52 65 50 58 57 49 42 41
63 73 76 72 75 76 76 74 74 69 74 87 97 90 92 84 86 94 93 103 96 87 84 82 90 74 65 53 42 42 49 65 50 60 55 59 58 48
75 77 76 76 77 73 67 68 83 75 71 91 95 94 96 81 93 91 92 100 97 98 87 87 92 87 80 68 57 43 51 69 59 61 66 64 57 50
78 78 80 78 72 60 55 54 58 66 77 93 104 97 109 79 100 96 97 101 101 97 89 90 91 91 91 83 72 55 55 65 65 76 76 61 50 46
89 87 80 64 58 54 46 48 53 67 81 91 92 100 115 81 100 95 98 98 99 96 91 92 89 84 72 64 57 60 58 51 52 67 71 64 63 55
88 86 69 53 41 18 17 24 45 65 75 83 92 106 80 101 95 100 104 105 102 97 89 83 83 82 78 75 69 74 73 64 59 59 57 52 57 51
87 80 60 35 1 6 22 27 44 63 76 76 92 111 66 89 92 99 100 97 96 92 87 83 88 88 84 80 72 82 83 81 81 76 69 59 47 34
Wind_Direction_850mb
306 304 293 288 288 284 278 281 294 300 301 300 296 294 327 311 292 280 273 265 261 244 228 229 227 220 222 222 237 244 265 255 274 281 295 306 334 335
304 305 292 286 285 280 276 273 271 280 296 290 300 294 286 304 297 282 281 273 246 243 219 226 234 226 223 234 240 239 259 250 263 274 282 298 340 333
299 299 296 287 281 278 276 275 272 267 275 277 274 285 293 291 291 282 271 256 242 229 212 225 232 226 228 226 239 243 255 250 254 263 270 289 338 339
294 292 286 290 286 286 280 276 271 268 269 277 274 267 272 290 281 271 267 255 246 224 217 223 227 224 221 226 237 244 250 243 246 252 259 282 331 336
293 291 276 277 280 282 281 280 275 273 269 268 272 264 265 280 284 258 245 241 253 218 214 215 223 222 228 217 233 244 247 239 239 241 249 274 308 331
292 285 276 274 273 274 275 280 275 275 274 276 275 265 256 265 269 259 231 231 237 223 214 220 217 219 225 216 229 242 240 238 230 236 240 267 296 327
285 281 276 272 272 273 272 270 266 270 273 273 275 274 254 253 249 252 235 234 225 232 213 215 222 222 224 220 222 235 234 235 227 232 238 259 288 313
281 273 269 268 268 267 264 265 261 261 259 265 265 262 262 250 261 242 233 215 212 221 219 217 220 223 232 228 226 235 234 231 227 233 239 246 267 286
286 285 281 276 273 269 267 266 263 259 257 258 259 258 255 255 243 240 231 236 232 222 216 223 230 230 228 225 220 230 230 229 226 230 235 233 242 203
286 284 280 277 274 269 269 269 262 261 257 257 251 251 249 249 246 247 239 239 227 225 218 215 231 227 228 221 221 226 227 221 229 227 228 227 218 178
290 288 285 281 277 274 272 264 261 262 261 256 257 253 248 244 246 233 228 220 221 221 223 216 220 217 222 219 215 214 219 211 225 226 219 216 197 180
291 288 285 282 281 278 273 268 267 266 259 254 255 251 246 236 235 234 228 218 216 213 213 213 217 214 202 215 216 218 212 207 218 221 205 205 188 184
285 282 280 278 277 276 273 269 266 269 263 258 253 250 244 243 229 229 225 222 222 223 224 218 217 210 208 202 209 213 215 216 215 216 196 198 193 180
288 287 285 284 284 279 273 268 264 258 254 248 245 238 240 240 231 225 225 225 232 237 232 231 220 214 214 212 205 210 211 209 212 212 198 192 192 181
301 298 295 291 288 282 276 272 269 257 240 239 236 240 232 229 230 226 226 223 225 235 232 232 223 223 219 223 214 210 201 202 204 203 197 195 195 179
301 301 295 292 290 288 283 277 269 257 239 229 229 224 222 221 219 224 213 212 215 226 223 222 220 219 218 220 212 215 208 198 197 196 193 191 191 185
304 295 296 297 292 288 284 278 269 255 237 225 219 212 212 213 210 212 198 202 206 209 202 204 208 215 218 221 208 217 212 202 202 191 186 189 187 190
313 308 307 304 299 295 288 280 272 252 233 214 208 205 209 203 201 186 192 198 198 203 206 199 201 199 202 199 217 222 207 200 194 189 185 186 189 192
329 323 309 306 300 292 281 265 261 251 226 207 199 201 199 195 191 185 187 198 198 204 204 197 201 201 190 185 196 199 215 192 185 182 186 193 194 193
338 323 317 313 305 292 288 264 246 230 214 200 196 195 189 192 181 183 182 185 191 195 196 200 204 204 198 193 191 185 195 190 185 179 185 190 198 202
342 336 331 322 317 303 279 253 233 211 198 190 188 189 185 193 181 181 187 188 192 196 196 199 207 209 194 199 189 173 189 199 206 203 195 193 195 201
350 344 338 340 335 322 255 202 192 188 181 179 179 179 182 182 186 187 186 189 195 201 204 204 202 194 194 203 195 182 177 186 203 209 213 214 207 207
358 353 350 1 36 89 129 167 172 171 169 172 176 175 180 175 178 179 185 186 192 196 194 197 195 195 195 199 193 183 182 184 189 192 198 208 219 227